{"data":{"norad_id":63720,"intl_designator":"2025-087Z","name":"STARLINK-33757","alt_names":[],"object_type":"PAYLOAD","status":"ACTIVE","operator":null,"country":"US","launch_date":"2025-04-28","launch_site_code":"AFWTR","launch_vehicle":null,"mission":null,"orbit_class":"UNKNOWN","rcs_meters":null,"size_class":null,"mass_kg":null,"dimensions":null,"purposes":["comms"],"wikipedia_slug":null,"has_3d_model":false,"image_url":null,"decayed_at":null,"tle_current":{"epoch":"2026-09-20T15:13:42.653280Z","epoch_age_seconds":141029,"freshness":"FRESH","line1":"1 63720U 25087Z   26263.63452145  .00019641  00000+0  59097-3 0  9992","line2":"2 63720  53.1612  32.8422 0001099  79.2473 280.8654 15.34397174 79069","mean_motion":15.34397174,"eccentricity":0.0001099,"inclination_deg":53.1612,"raan_deg":32.8422,"arg_perigee_deg":79.2473,"mean_anomaly_deg":280.8654,"bstar":0.00059097,"rev_number":7906,"period_min":93.847930926911,"perigee_km":461.95983042205,"apogee_km":463.46344895305,"semimajor_km":6840.8486396875,"source":"CELESTRAK","updated_at":"2026-09-21T09:00:35.091485Z"}}}